Location: Aranbee
(34.0885°N, 118.2342°W)
Time: 09:40:27
(UTC+00:00)

Courier 1B Rocket - Pass Details

Date: 04 December 2020
Orbit: 920 x 1202 km, 28.2° (Epoch: 19 January)

Event Time Altitude Azimuth Distance (km) Brightness Sun altitude
Exits shadow 13:21:05 17° 254° (WSW) 2,604 6.7 -16.7°
Maximum altitude 13:27:05 57° 182° (S) 1,388 5.9 -15.5°
Drops below altitude 10° 13:34:40 10° 106° (ESE) 3,108 9.1 -14.0°
Sets 13:37:32 0° 102° (ESE) 4,051 10.2 -13.4°
